Zurück zum Katalog

DELTA 1 DEB

AktivPO
NORAD 21354·DEBRIS·🇺🇸 United States

Gestartet Jun 12, 1975 von Vandenberg Space Force Base

Loading…

Nächste Überflüge (nächste 24 Stunden)

TLE

AktuellSource: Space-Track

Epoche: Sep 14, 2026, 04:48 UTC

1 21354U 75052BY  26257.20050300  .00000954  00000-0  18000-2 0  9995
2 21354  99.5048 158.3484 0225050 106.3370  45.1208 13.31629451700618

Verfolge DELTA 1 DEB in Echtzeit mit AllMySat

Download on the App Store